Location: Unspecified
(0.0000°N, 0.0000°E)
Time: 06:55:36
(UTC+00:00)

ZACube-1 - Visible Passes

Search period start: 20 June 2019 00:00
Search period end: 30 June 2019 00:00
Orbit: 584 x 667 km, 97.6° (Epoch: 19 June)

Date Brightness Start Highest point End Pass type
(mag) Time Alt. Az. Time Alt. Az. Time Alt. Az.
20 Jun ? 05:22:46 10° ENE 05:24:47 13° ESE 05:26:48 10° SE visible
20 Jun ? 19:07:28 10° SSW 19:10:27 19° WSW 19:13:24 10° NW visible
23 Jun ? 18:27:17 10° S 18:31:26 73° WSW 18:35:32 10° NNW visible
24 Jun ? 18:46:36 10° SSW 18:50:26 36° WSW 18:54:13 10° NW visible
25 Jun ? 05:21:47 10° ENE 05:23:49 13° ESE 05:25:52 10° SE visible
25 Jun ? 19:06:27 10° SSW 19:09:25 19° WSW 19:12:21 10° NW visible
28 Jun ? 18:26:17 10° S 18:30:23 73° WSW 18:34:29 10° NNW visible
29 Jun ? 18:45:35 10° SSW 18:49:23 36° WSW 18:53:10 10° NW visible
